Date String (YYYY-MM-DD hh:mm:ss) UTC,Instrument flags,Ambient pressure (hPa),Sample flow (lpm),Bypass flow (lpm),Sample temperature (°C),Ambient temperature (°C),ASC tube jacket temperature (°C),LED temperature (°C),Box temperature (°C),Sample RH (%),Span deviation,Mass concentration (μg/m³),Mass concentration (μg/m³),Mass concentration (μg/m³)
DateTimeUTC,F1_M11,P_M11,Q1_M11,Q2_M11,T1_M11,T2_M11,T3_M11,T4_M11,T5_M11,U1_M11,ZSPAN_M11,X0_M11,X2_M11,X1_M11
2021-10-24 09:00:00,,0818.5,5.01,0.00,28.5,27.5,00.0,37.6,30.2,13.0,0000.0,0011.52,0003.61,0002.21
2021-10-24 09:01:00,,0818.4,5.00,0.00,28.5,27.5,00.0,37.6,30.2,13.0,0000.0,0011.77,0003.63,0002.21
2021-10-24 09:02:00,,0818.3,4.99,0.00,28.5,27.5,00.0,37.6,30.2,12.9,0000.0,0011.88,0003.56,0002.17
2021-10-24 09:03:00,,0818.4,5.00,0.00,28.5,27.5,00.0,37.6,30.3,12.8,0000.0,0011.97,0003.52,0002.13
2021-10-24 09:04:00,,0818.4,5.01,0.00,28.5,27.5,00.0,37.6,30.3,13.0,0000.0,0012.21,0003.53,0002.14
2021-10-24 09:05:00,,0818.4,5.00,0.00,28.4,27.5,00.0,37.6,30.2,13.1,0000.0,0012.59,0003.55,0002.15
2021-10-24 09:06:00,,0818.4,5.00,0.00,28.4,27.5,00.0,37.6,30.3,13.2,0000.0,0012.32,0003.57,0002.17
2021-10-24 09:07:00,,0818.4,5.00,0.00,28.5,27.5,00.0,37.6,30.2,13.2,0000.0,0013.09,0003.57,0002.19
2021-10-24 09:08:00,,0818.4,5.01,0.00,28.5,27.6,00.0,37.6,30.2,13.2,0000.0,0013.53,0003.59,0002.20
2021-10-24 09:09:00,,0818.4,5.00,0.00,28.5,27.6,00.0,37.6,30.2,13.3,0000.0,0013.39,0003.63,0002.22
2021-10-24 09:10:00,,0818.4,5.00,0.00,28.5,27.6,00.0,37.6,30.3,13.4,0000.0,0013.31,0003.66,0002.27
2021-10-24 09:11:00,,0818.3,5.00,0.00,28.5,27.6,00.0,37.6,30.2,13.4,0000.0,0012.77,0003.75,0002.34
2021-10-24 09:12:00,,0818.2,5.00,0.00,28.5,27.6,00.0,37.6,30.2,13.4,0000.0,0013.13,0003.79,0002.40
2021-10-24 09:13:00,,0818.2,5.00,0.00,28.5,27.6,00.0,37.6,30.2,13.4,0000.0,0013.41,0003.86,0002.48
2021-10-24 09:14:00,,0818.1,5.01,0.00,28.5,27.6,00.0,37.6,30.2,13.4,0000.0,0013.13,0003.97,0002.58
2021-10-24 09:15:00,,0818.0,5.00,0.00,28.5,27.6,00.0,37.6,30.3,13.4,0000.0,0013.25,0004.06,0002.65
2021-10-24 09:16:00,,0818.0,5.00,0.00,28.5,27.6,00.0,37.6,30.3,13.2,0000.0,0013.09,0004.19,0002.71
2021-10-24 09:17:00,,0818.0,5.00,0.00,28.5,27.6,00.0,37.6,30.3,13.3,0000.0,0015.09,0004.37,0002.78
2021-10-24 09:18:00,,0818.0,5.01,0.00,28.5,27.6,00.0,37.6,30.3,13.6,0000.0,0015.61,0004.58,0002.86
2021-10-24 09:19:00,,0818.0,5.00,0.00,28.5,27.6,00.0,37.6,30.2,13.7,0000.0,0016.61,0004.78,0002.97
2021-10-24 09:20:00,,0818.0,5.02,0.00,28.5,27.6,00.0,37.6,30.2,13.8,0000.0,0017.64,0004.91,0003.06
2021-10-24 09:21:00,,0818.0,5.00,0.00,28.5,27.6,00.0,37.6,30.2,13.8,0000.0,0018.70,0005.01,0003.12
2021-10-24 09:22:00,,0818.0,4.99,0.00,28.5,27.6,00.0,37.6,30.2,13.7,0000.0,0019.15,0005.10,0003.15
2021-10-24 09:23:00,,0818.0,5.01,0.00,28.5,27.6,00.0,37.6,30.2,13.7,0000.0,0020.79,0005.22,0003.18
2021-10-24 09:24:00,,0818.0,5.00,0.00,28.5,27.6,00.0,37.6,30.3,13.7,0000.0,0023.14,0005.33,0003.21
2021-10-24 09:25:00,,0818.0,5.00,0.00,28.5,27.6,00.0,37.6,30.3,14.0,0000.0,0024.83,0005.43,0003.26
2021-10-24 09:26:00,,0818.0,5.01,0.00,28.5,27.6,00.0,37.6,30.3,14.3,0000.0,0025.54,0005.53,0003.32
2021-10-24 09:27:00,,0818.0,5.00,0.00,28.5,27.6,00.0,37.6,30.3,14.8,0000.0,0024.93,0005.60,0003.41
2021-10-24 09:28:00,,0818.0,5.01,0.00,28.5,27.6,00.0,37.6,30.3,15.1,0000.0,0023.13,0005.74,0003.53
2021-10-24 09:29:00,,0818.0,4.99,0.00,28.5,27.6,00.0,37.6,30.2,15.1,0000.0,0023.30,0005.82,0003.63
2021-10-24 09:30:00,,0818.0,5.01,0.00,28.5,27.6,00.0,37.6,30.2,15.0,0000.0,0022.87,0005.86,0003.72
2021-10-24 09:31:00,,0818.0,5.01,0.00,28.5,27.6,00.0,37.6,30.2,14.8,0000.0,0022.53,0005.91,0003.79
2021-10-24 09:32:00,,0817.9,4.99,0.00,28.5,27.6,00.0,37.6,30.2,14.8,0000.0,0022.55,0006.02,0003.86
2021-10-24 09:33:00,,0817.9,5.00,0.00,28.5,27.5,00.0,37.6,30.2,14.8,0000.0,0022.81,0006.06,0003.94
2021-10-24 09:34:00,,0818.0,4.99,0.00,28.4,27.5,00.0,37.6,30.2,14.8,0000.0,0021.46,0006.06,0004.02
2021-10-24 09:35:00,,0818.0,5.00,0.00,28.4,27.5,00.0,37.6,30.2,14.7,0000.0,0020.06,0006.13,0004.09
2021-10-24 09:36:00,,0817.9,5.00,0.00,28.4,27.5,00.0,37.6,30.2,14.7,0000.0,0018.92,0006.21,0004.15
2021-10-24 09:37:00,,0818.0,4.99,0.00,28.4,27.5,00.0,37.6,30.2,14.7,0000.0,0018.52,0006.27,0004.19
2021-10-24 09:38:00,,0817.9,5.00,0.00,28.4,27.5,00.0,37.6,30.2,14.2,0000.0,0019.38,0006.27,0004.18
2021-10-24 09:39:00,,0817.9,5.00,0.00,28.4,27.5,00.0,37.6,30.2,14.0,0000.0,0020.47,0006.12,0004.11
2021-10-24 09:40:00,,0818.0,5.00,0.00,28.4,27.5,00.0,37.5,30.2,14.1,0000.0,0020.59,0006.01,0004.02
2021-10-24 09:41:00,,0818.0,5.01,0.00,28.4,27.5,00.0,37.5,30.1,14.2,0000.0,0021.22,0005.97,0003.95
2021-10-24 09:42:00,,0818.0,5.00,0.00,28.4,27.5,00.0,37.5,30.1,14.3,0000.0,0021.65,0005.95,0003.91
2021-10-24 09:43:00,,0818.0,5.00,0.00,28.4,27.5,00.0,37.5,30.1,14.4,0000.0,0022.11,0005.90,0003.88
2021-10-24 09:44:00,,0818.0,5.00,0.00,28.4,27.5,00.0,37.5,30.1,14.3,0000.0,0021.82,0005.85,0003.83
2021-10-24 09:45:00,,0818.0,5.01,0.00,28.4,27.4,00.0,37.5,30.1,14.3,0000.0,0021.55,0005.82,0003.79
2021-10-24 09:46:00,,0818.0,5.01,0.00,28.4,27.4,00.0,37.5,30.1,14.2,0000.0,0020.70,0005.74,0003.75
2021-10-24 09:47:00,,0818.0,4.98,0.00,28.4,27.4,00.0,37.5,30.1,14.2,0000.0,0021.36,0005.69,0003.71
2021-10-24 09:48:00,,0818.0,5.00,0.00,28.4,27.4,00.0,37.5,30.1,14.2,0000.0,0021.68,0005.69,0003.66
2021-10-24 09:49:00,,0818.0,5.01,0.00,28.4,27.4,00.0,37.5,30.1,14.2,0000.0,0021.12,0005.65,0003.64
2021-10-24 09:50:00,,0818.0,5.00,0.00,28.4,27.4,00.0,37.5,30.1,14.2,0000.0,0020.64,0005.72,0003.67
2021-10-24 09:51:00,,0818.0,5.00,0.00,28.3,27.4,00.0,37.5,30.0,14.3,0000.0,0019.85,0005.72,0003.70
2021-10-24 09:52:00,,0818.1,4.99,0.00,28.3,27.4,00.0,37.5,30.0,14.4,0000.0,0019.67,0005.69,0003.74
2021-10-24 09:53:00,,0818.1,5.00,0.00,28.3,27.3,00.0,37.5,30.0,14.4,0000.0,0020.17,0005.69,0003.75
2021-10-24 09:54:00,,0818.0,5.00,0.00,28.3,27.3,00.0,37.5,30.0,14.5,0000.0,0019.86,0005.77,0003.77
2021-10-24 09:55:00,,0818.0,5.00,0.00,28.3,27.3,00.0,37.5,30.0,14.5,0000.0,0019.91,0005.87,0003.79
2021-10-24 09:56:00,,0818.1,5.01,0.00,28.3,27.3,00.0,37.5,30.0,14.5,0000.0,0019.66,0005.91,0003.80
2021-10-24 09:57:00,,0818.2,4.99,0.00,28.3,27.3,00.0,37.5,30.0,14.5,0000.0,0019.77,0005.96,0003.81
2021-10-24 09:58:00,,0818.2,4.99,0.00,28.3,27.3,00.0,37.4,29.9,14.5,0000.0,0018.67,0005.91,0003.83
2021-10-24 09:59:00,,0818.2,5.00,0.00,28.2,27.3,00.0,37.4,29.9,14.5,0000.0,0018.31,0005.87,0003.84
